Weather History for Fairmont, MN

Change the Weather History Date:

Friday, November 30, 2012

  Actual Average Record
Temperature  
Mean Temperature 33 °F -  
Max Temperature 42 °F 32 °F 57 °F (1962)
Min Temperature 24 °F 18 °F -9 °F (1964)
Degree Days  
Heating Degree Days 32    
Moisture  
Dew Point 27 °F    
Average Humidity 78    
Maximum Humidity 87    
Minimum Humidity 65    
Precipitation  
Precipitation 0.00 in - - ()
Sea Level Pressure  
Sea Level Pressure 30.04 in    
Wind  
Wind Speed 7 mph (East)    
Max Wind Speed 15 mph    
Max Gust Speed 18 mph    
Visibility 6 miles    
Events      
Averages and records for this station are not official NWS values.
T = Trace of Precipitation, MM = Missing Value Source: NWS Daily Summary

Daily Weather History Graph

Daily Weather History Graph

Search for Another Location

Airport:

Trip Planner

Search our weather history database for the weather conditions in past years. The results will help you decide how hot, cold, wet, or windy it might be!

Date:

Astronomy

Nov. 30, 2012 Rise Set
Actual Time 7:30 AM CST 4:42 PM CST
Civil Twilight 6:58 AM CST 5:14 PM CST
Nautical Twilight 6:22 AM CST 5:50 PM CST
Astronomical Twilight 5:48 AM CST 6:24 PM CST
Moon 6:38 PM CST (11/30) 9:03 AM CST (11/30)
Length of Visible Light 10h 15m
Length of Day
9h 11m
Waning Gibbous, 96% of the Moon is Illuminated
Nov 30
Waning Gibbous
Dec 6
Last Quarter
Dec 13
New
Dec 19
First Quarter
Dec 28
Full

Hourly Weather History & Observations

Time (CST) Temp. Windchill Dew Point Humidity Pressure Visibility Wind Dir Wind Speed Gust Speed Precip Events Conditions
12:15 AM 32.0 °F 24.8 °F 24.8 °F 75% 29.98 in 10.0 mi ENE 8.1 mph - N/A   Clear
12:35 AM 30.2 °F 22.6 °F 24.8 °F 80% 29.97 in 10.0 mi ENE 8.1 mph - N/A   Clear
12:55 AM 32.0 °F 25.6 °F 24.8 °F 75% 29.97 in 10.0 mi ENE 6.9 mph - N/A   Clear
1:15 AM 32.0 °F 27.5 °F 24.8 °F 75% 29.98 in 10.0 mi NNE 4.6 mph - N/A   Clear
1:35 AM 32.0 °F 27.5 °F 24.8 °F 75% 29.99 in 10.0 mi NNE 4.6 mph - N/A   Clear
1:55 AM 30.2 °F 24.3 °F 24.8 °F 80% 29.99 in 10.0 mi NNE 5.8 mph - N/A   Clear
2:15 AM 30.2 °F 24.3 °F 23.0 °F 75% 29.99 in 10.0 mi NE 5.8 mph - N/A   Clear
2:35 AM 30.2 °F 23.4 °F 23.0 °F 75% 29.99 in 10.0 mi NE 6.9 mph - N/A   Clear
2:55 AM 30.2 °F 23.4 °F 24.8 °F 80% 30.00 in 10.0 mi NE 6.9 mph - N/A   Partly Cloudy
3:15 AM 30.2 °F 26.7 °F 23.0 °F 75% 30.01 in 10.0 mi North 3.5 mph - N/A   Clear
3:35 AM 26.6 °F 19.1 °F 21.2 °F 80% 30.01 in 10.0 mi NNE 6.9 mph - N/A   Clear
3:55 AM 28.4 °F 19.7 °F 23.0 °F 80% 29.99 in 10.0 mi NE 9.2 mph - N/A   Clear
4:15 AM 28.4 °F 24.6 °F 24.8 °F 86% 30.01 in 10.0 mi ENE 3.5 mph - N/A   Clear
4:35 AM 26.6 °F 21.2 °F 21.2 °F 80% 30.03 in 9.0 mi North 4.6 mph - N/A   Clear
4:55 AM 26.6 °F 21.2 °F 23.0 °F 86% 30.02 in 9.0 mi North 4.6 mph - N/A   Clear
5:15 AM 26.6 °F 18.2 °F 21.2 °F 80% 30.04 in 8.0 mi North 8.1 mph - N/A   Clear
5:35 AM 24.8 °F 16.1 °F 21.2 °F 86% 30.03 in 7.0 mi NNE 8.1 mph - N/A   Clear
6:15 AM 26.6 °F 18.2 °F 21.2 °F 80% 30.04 in 7.0 mi North 8.1 mph - N/A   Clear
6:35 AM 26.6 °F 17.5 °F 21.2 °F 80% 30.04 in 7.0 mi NNE 9.2 mph - N/A   Clear
6:55 AM 24.8 °F 16.1 °F 21.2 °F 86% 30.05 in 7.0 mi NNE 8.1 mph - N/A   Clear
7:15 AM 24.8 °F 17.9 °F 21.2 °F 86% 30.06 in 7.0 mi NNE 5.8 mph - N/A   Clear
7:35 AM 24.8 °F 19.1 °F 19.4 °F 80% 30.07 in 5.0 mi North 4.6 mph - N/A   Clear
7:55 AM 24.8 °F 20.5 °F 21.2 °F 86% 30.07 in 5.0 mi NE 3.5 mph - N/A   Clear
8:15 AM 24.8 °F - 21.2 °F 86% 30.08 in 4.0 mi Calm Calm - N/A   Clear
8:35 AM 26.6 °F 22.6 °F 23.0 °F 86% 30.08 in 4.0 mi NNE 3.5 mph - N/A   Clear
8:55 AM 28.4 °F - 24.8 °F 86% 30.09 in 5.0 mi Calm Calm - N/A   Clear
9:15 AM 30.2 °F 26.7 °F 24.8 °F 80% 30.09 in 5.0 mi NNE 3.5 mph - N/A   Clear
9:35 AM 32.0 °F 25.6 °F 26.6 °F 80% 30.10 in 5.0 mi ENE 6.9 mph - N/A   Clear
9:55 AM 33.8 °F 25.8 °F 26.6 °F 75% 30.09 in 5.0 mi East 10.4 mph - N/A   Clear
10:15 AM 33.8 °F 25.8 °F 28.4 °F 81% 30.09 in 5.0 mi ENE 10.4 mph - N/A   Clear
10:35 AM 33.8 °F 27.0 °F 28.4 °F 81% 30.11 in 6.0 mi East 8.1 mph - N/A   Clear
10:55 AM 35.6 °F 29.9 °F 28.4 °F 75% 30.11 in 6.0 mi East 6.9 mph - N/A   Clear
11:15 AM 37.4 °F 33.8 °F 28.4 °F 70% 30.11 in 6.0 mi ENE 4.6 mph - N/A   Partly Cloudy
11:35 AM 37.4 °F 32.1 °F 28.4 °F 70% 30.11 in 6.0 mi East 6.9 mph - N/A   Clear
11:55 AM 37.4 °F 32.8 °F 30.2 °F 75% 30.10 in 7.0 mi ESE 5.8 mph - N/A   Clear
12:15 PM 39.2 °F 34.2 °F 30.2 °F 70% 30.09 in 6.0 mi ESE 6.9 mph - N/A   Clear
12:35 PM 39.2 °F 34.2 °F 30.2 °F 70% 30.08 in 7.0 mi ESE 6.9 mph - N/A   Clear
12:55 PM 41.0 °F 36.4 °F 30.2 °F 65% 30.08 in 7.0 mi East 6.9 mph - N/A   Clear
1:15 PM 39.2 °F 35.9 °F 30.2 °F 70% 30.08 in 7.0 mi East 4.6 mph - N/A   Clear
1:35 PM 41.0 °F 36.4 °F 30.2 °F 65% 30.08 in 7.0 mi East 6.9 mph - N/A   Clear
1:55 PM 41.0 °F 36.4 °F 30.2 °F 65% 30.07 in 7.0 mi East 6.9 mph - N/A   Clear
2:15 PM 41.0 °F 36.4 °F 30.2 °F 65% 30.05 in 7.0 mi East 6.9 mph - N/A   Clear
2:35 PM 41.0 °F 35.2 °F 30.2 °F 65% 30.06 in 7.0 mi East 9.2 mph - N/A   Clear
2:55 PM 41.0 °F 35.8 °F 30.2 °F 65% 30.06 in 7.0 mi East 8.1 mph - N/A   Clear
3:15 PM 42.8 °F 38.0 °F 32.0 °F 66% 30.06 in 7.0 mi East 8.1 mph - N/A   Clear
3:35 PM 42.8 °F 38.0 °F 32.0 °F 66% 30.06 in 7.0 mi ESE 8.1 mph - N/A   Clear
3:55 PM 41.0 °F 35.2 °F 30.2 °F 65% 30.06 in 7.0 mi ESE 9.2 mph - N/A   Clear
4:15 PM 41.0 °F 36.4 °F 30.2 °F 65% 30.07 in 7.0 mi East 6.9 mph - N/A   Clear
4:35 PM 39.2 °F 32.5 °F 30.2 °F 70% 30.05 in 6.0 mi East 10.4 mph - N/A   Clear
4:55 PM 37.4 °F 31.4 °F 30.2 °F 75% 30.06 in 5.0 mi East 8.1 mph - N/A   Clear
5:15 PM 37.4 °F 30.8 °F 28.4 °F 70% 30.06 in 7.0 mi East 9.2 mph - N/A   Clear
5:35 PM 35.6 °F 28.6 °F 30.2 °F 81% 30.06 in 6.0 mi East 9.2 mph - N/A   Clear
5:55 PM 35.6 °F 28.0 °F 28.4 °F 75% 30.05 in 5.0 mi ESE 10.4 mph - N/A   Clear
6:15 PM 33.8 °F 26.4 °F 28.4 °F 81% 30.05 in 5.0 mi ESE 9.2 mph - N/A   Clear
6:35 PM 33.8 °F 26.4 °F 28.4 °F 81% 30.06 in 5.0 mi ESE 9.2 mph - N/A   Clear
7:15 PM 32.0 °F 23.6 °F 28.4 °F 87% 30.05 in 5.0 mi ESE 10.4 mph - N/A   Clear
7:35 PM 32.0 °F 21.6 °F 28.4 °F 87% 30.03 in 4.0 mi ESE 15.0 mph - N/A   Clear
7:55 PM 32.0 °F 21.6 °F 28.4 °F 87% 30.01 in 3.0 mi ESE 15.0 mph - N/A   Mostly Cloudy
8:15 PM 33.8 °F 24.3 °F 28.4 °F 81% 30.01 in 3.0 mi SE 13.8 mph - N/A   Overcast
8:35 PM 33.8 °F 25.3 °F 30.2 °F 87% 30.02 in 3.0 mi SE 11.5 mph - N/A   Overcast
9:15 PM 33.8 °F 25.3 °F 30.2 °F 87% 30.02 in 2.5 mi SE 11.5 mph 18.4 mph N/A   Overcast
9:35 PM 33.8 °F 25.3 °F 30.2 °F 87% 30.03 in 2.5 mi SE 11.5 mph - N/A   Overcast
9:55 PM 33.8 °F 24.8 °F 30.2 °F 87% 30.01 in 2.5 mi SE 12.7 mph - N/A   Overcast
10:15 PM 33.8 °F 23.9 °F 30.2 °F 87% 30.00 in 2.5 mi SE 15.0 mph - N/A   Overcast
10:35 PM 33.8 °F 24.3 °F 30.2 °F 87% 30.01 in 2.5 mi SE 13.8 mph - N/A   Overcast
10:55 PM 33.8 °F 25.3 °F 30.2 °F 87% 30.01 in 2.5 mi SE 11.5 mph - N/A   Overcast
11:15 PM 35.6 °F 27.1 °F 30.2 °F 81% 30.02 in 2.5 mi SE 12.7 mph - N/A   Overcast
11:35 PM 35.6 °F 27.1 °F 32.0 °F 87% 30.01 in 2.5 mi SE 12.7 mph - N/A   Overcast
11:55 PM 35.6 °F 26.6 °F 32.0 °F 87% 30.00 in 2.5 mi SE 13.8 mph - N/A   Overcast